Showing default

ZHANGHENG 1, 43194

Orbit data source: Space-Track

ZHANGHENG 1, 43194 is a payload satellite owned by CAS (CN) in SSO that was launched on Fri, 02 Feb 2018 UTC via a CHANG ZHENG 2D launch vehicle from the Jiuquan Satellite Launch Center, China (JSC). Payloads include a variety of satellites, spacecraft, and rockets equipped with specific instruments for various scientific and technological missions. These include communications satellites like Starlink; space stations such as the ISS; scientific satellites like the Hubble; Earth observation satellites from companies like Planet Labs, Umbra, and HawkEye 360; GPS; miniature CubeSats for education and research; and military/defense satellites.

Loading next visibility...
ZHANGHENG 1 details
Identifier
43194, 2018-015C
Orbit
SSO
Last TLE update9 hours ago
Origin
Flag of CNCAS (CN / PRC)
ManufacturerDFH
MissionOperational Civil Science
Bus & MotorCAST-2000, AOCS
Mass730 kg wet, ~700 kg dry
Launch date (UTC)
2018-02-02 (7 years ago)
Launch vehicle
CHANG ZHENG 2D
Launch site
Jiuquan Satellite Launch Center, China (JSC)
Object type
Payload
Rocket body
Debris
Shape & HBRBox + 2 Pan, 4 m
Radar Cross Section2.715 m², Large (>1 m²)

Expand to show TLE details & history

TLE from 9 hours ago
0 ZHANGHENG 1
1 43194U 18015C   24361.26461012  .00021702  00000-0  98751-3 0  9999
2 43194  97.6270 147.1515 0009991 237.6012 122.4256 15.20688254382889
Epoch: 2024-12-26T06:21Z
Definitive object data (Epoch: 2024-12-26T06:21:02.314Z)
Latitude-0.00009°
Longitude-43.35463°
Altitude510.541 km
Speed7.607 km/s
True Right ascension09h 48m 36s
True Declination0° 00' 00"
Sunlit
Object was in full shadow at TLE epoch
Visualization TLE readout
Latitude6.85406°
Longitude137.92744°
Altitude503.08 km
Speed7.615 km/s
Apparent Right ascension23h 43m 02s
Apparent Declination-18° 18' 54"
Sunlit
Object is in daylight
Visualization observer readout
Local Sidereal Time14:22:17
Azimuth69.53° E
Elevation-49.547°
Doppler factor1
Orbital elements
Apogee altitude507.611 km
Perigee altitude493.865 km
Semi-major axis6,878.875 km
Eccentricity0.0009991
Inclination97.627°
RAAN147.1515°
Arg. of periapsis237.6012°
True anomaly122.52217°
Mean anomaly122.4256°
Eccentric anomaly122.47389°
Mean motion3.80423 °/min
BSTAR0.00098751
Orbital period94.63 mins
Loading maneuver chart data...
Loading historical data...
Loading historical data...
Loading historical data...
Loading historical data...
Loading historical data...
Loading historical data...
Loading historical data...

ZHANGHENG 1 Visibility forecast

Observer location: undefined°, undefined

Span
Click to sort rows by Start time (UTC) header in descending order
Start Az.
Max El. time (UTC)
Max El. Az.
Max El.
End time (UTC)
End Az.
6 mins2024-12-26 22:42:21.782Z18.493° NNE2024-12-26 22:45:21.782Z90.761° ESE43.007°2024-12-26 22:48:21.782Z183.909° SSW
4 mins2024-12-27 09:21:21.782Z111.03° ESE2024-12-27 09:23:21.782Z59.824° ENE24.127°2024-12-27 09:25:21.782Z19.864° NNE
|